Temperature
8 9 10 10 11 11 11 12 11 11 12 13 14 13 13 15 16 16 16 17 17 17 17 16 16 15 15 14 13 12 11 11 10 10 10 9 9 9 9 9 9 9 8 8
7 9 10 10 11 12 12 12 11 11 12 13 13 14 14 15 15 15 16 17 17 17 17 16 16 16 15 14 13 12 11 11 10 10 9 9 9 9 9 9 8 8 8 8
6 8 9 9 11 12 12 12 12 12 13 12 13 13 13 15 15 16 17 17 17 17 17 17 16 16 15 14 13 12 11 10 10 9 9 9 8 8 8 8 8 8 8 7
6 7 8 10 11 12 12 12 12 12 13 13 14 15 17 17 17 17 17 17 17 17 17 17 16 15 15 13 12 11 11 10 10 9 9 8 8 8 8 8 7 7 7 7
6 6 7 9 10 11 11 12 12 12 12 13 15 14 15 17 17 18 18 18 18 17 17 16 16 15 14 13 12 11 11 10 9 9 8 8 8 8 7 7 7 7 6 6
5 6 7 10 10 11 12 11 12 12 12 12 12 12 13 16 17 17 17 17 17 16 16 16 15 14 14 13 12 11 11 10 9 8 8 8 7 7 7 7 6 6 6 5
5 6 7 9 10 11 10 11 12 12 13 12 12 14 16 16 17 17 17 16 16 16 15 15 14 14 13 13 12 11 10 9 8 8 7 7 7 6 6 6 5 5 5 5
5 5 7 9 9 10 10 12 13 13 13 13 14 15 15 16 16 16 16 15 15 15 15 14 14 13 13 12 11 10 9 9 8 7 7 6 6 6 5 5 5 4 4 4
5 7 8 8 9 11 12 12 13 13 13 13 13 13 14 15 15 15 15 15 14 14 14 13 13 12 12 11 10 9 9 8 7 7 6 6 5 5 5 4 4 4 3 3
5 6 7 8 9 10 11 12 13 13 14 13 13 13 14 14 14 14 14 14 14 13 13 12 12 11 11 10 10 9 8 7 7 6 6 5 5 4 4 4 3 3 3 2
5 6 6 8 9 10 11 11 12 13 13 13 13 13 13 13 13 13 13 13 13 13 12 12 11 10 10 9 9 8 7 7 6 5 5 4 4 4 3 3 3 2 2 2
5 6 6 7 8 9 10 11 11 12 12 12 13 13 13 13 13 12 12 12 12 12 11 11 10 9 9 8 8 7 7 6 5 5 4 4 3 3 2 2 2 1 1 0
6 6 7 8 8 9 9 10 11 12 12 12 12 12 13 12 12 12 11 11 11 11 10 10 9 9 8 7 7 7 6 5 5 4 4 3 3 3 2 1 1 0 0 -0
6 6 6 7 8 8 9 10 10 11 12 12 12 12 12 12 11 11 11 10 10 10 9 9 8 8 7 6 6 6 5 5 4 4 3 3 2 2 1 1 1 0 -0 -1
6 6 7 7 8 8 9 9 10 10 11 11 11 11 11 11 11 10 10 9 9 9 8 8 7 7 6 6 5 5 4 4 3 3 2 2 1 1 1 0 -0 -1 -1 -2
6 6 7 7 7 8 8 9 9 10 10 10 10 10 10 11 10 9 9 8 8 8 7 7 6 6 5 5 4 4 3 3 3 2 2 1 1 0 -0 -1 -1 -2 -3 -3
5 5 6 6 7 8 8 9 10 10 10 10 10 10 9 9 8 8 7 7 7 7 6 6 5 5 4 4 3 3 3 2 2 1 1 0 -0 -1 -1 -2 -3 -3 -4 -5
5 6 7 7 8 8 8 8 9 9 9 9 9 9 8 8 8 7 6 6 5 5 4 4 4 4 3 3 2 2 2 1 1 0 -0 -1 -1 -2 -3 -3 -4 -4 -5 -5
5 6 7 7 8 8 8 8 8 9 8 8 8 8 7 7 7 6 5 5 5 4 3 3 3 2 2 2 1 1 1 0 -0 -1 -1 -2 -2 -3 -4 -4 -5 -5 -6 -6
5 6 6 6 7 7 8 8 8 7 7 7 7 6 5 5 5 5 4 4 4 4 3 2 2 1 1 1 1 0 -0 -1 -1 -1 -2 -3 -3 -4 -4 -5 -6 -6 -7 -7
5 5 6 6 6 7 7 7 7 6 6 6 6 6 5 4 4 4 3 2 2 1 1 1 1 0 0 -0 -0 -1 -1 -1 -2 -2 -3 -4 -4 -5 -5 -6 -6 -7 -7 -8
5 5 5 5 6 5 5 6 6 5 5 4 4 4 4 3 2 2 2 2 1 0 0 0 -0 -0 -1 -1 -1 -2 -2 -2 -3 -3 -4 -4 -5 -6 -6 -6 -7 -7 -8 -8
4 4 4 4 4 4 4 4 4 4 4 3 3 3 3 2 2 1 0 -0 -0 -0 -1 -1 -1 -1 -2 -2 -2 -3 -3 -3 -4 -4 -5 -5 -6 -6 -7 -7 -8 -8 -8 -8
3 3 3 3 3 3 2 1 1 2 2 2 1 2 1 1 -0 -0 0 -1 -1 -1 -1 -2 -2 -2 -2 -3 -3 -3 -4 -4 -5 -5 -6 -6 -6 -7 -7 -8 -8 -8 -8 -9
2 1 1 1 1 0 -0 -0 -0 -0 -0 -1 -1 -1 -1 -0 -0 -1 -1 -1 -2 -2 -2 -3 -3 -3 -3 -4 -4 -4 -5 -5 -6 -6 -6 -7 -7 -7 -8 -8 -8 -8 -9 -9
-1 -1 -1 -1 -1 -1 -1 -1 -1 -2 -2 -2 -3 -2 -2 -2 -2 -2 -2 -2 -3 -3 -3 -4 -4 -4 -4 -4 -5 -5 -6 -6 -6 -7 -7 -7 -8 -8 -8 -8 -8 -9 -9 -9
-3 -3 -3 -3 -3 -3 -3 -2 -3 -3 -3 -3 -3 -3 -3 -3 -3 -3 -3 -3 -4 -4 -4 -4 -5 -5 -5 -5 -6 -6 -6 -7 -7 -7 -7 -8 -8 -8 -8 -8 -9 -9 -9 -9
Wind_Speed
9 7 10 12 16 17 16 17 15 14 14 13 11 10 10 9 9 9 10 10 11 11 10 9 9 9 10 10 10 10 10 11 11 10 10 10 11 11 11 11 12 11 10 9
10 9 10 11 17 22 22 19 17 11 13 12 10 8 8 9 10 11 12 13 12 11 11 11 12 11 11 11 10 10 11 10 9 10 10 10 11 11 11 10 10 10 10 10
8 6 6 15 22 24 21 18 18 21 19 8 9 12 13 13 12 13 13 13 13 13 13 13 13 12 12 11 10 10 10 10 10 11 11 10 11 11 11 10 9 9 9 9
4 5 12 12 11 14 19 20 20 17 12 13 14 13 12 12 14 14 13 12 12 11 11 10 9 9 9 9 10 11 10 10 10 11 10 10 11 11 10 8 9 8 8 8
5 7 8 8 8 17 18 18 17 18 15 14 11 8 10 11 12 13 13 11 11 10 9 9 10 10 10 10 10 10 10 10 11 11 11 11 11 10 7 7 7 6 7 8
5 7 10 9 6 7 10 14 13 16 17 14 12 12 14 10 10 10 9 8 7 7 7 8 9 11 12 11 11 11 11 10 10 11 11 11 10 8 6 7 7 7 6 6
9 7 9 7 4 10 11 11 7 14 16 14 17 17 10 9 9 9 8 8 8 9 8 8 10 11 11 10 10 9 9 9 9 9 10 10 8 6 7 7 7 6 5 4
8 8 10 3 5 9 6 2 3 8 11 14 14 11 9 11 10 11 9 8 9 9 8 7 10 12 11 9 8 9 10 9 9 8 8 8 9 7 7 8 7 5 4 2
7 8 6 4 5 5 2 2 3 4 5 8 9 8 9 10 10 10 10 10 9 11 10 7 8 10 12 8 10 11 10 9 9 8 7 8 9 8 6 6 5 4 4 3
6 9 11 11 8 5 5 4 4 3 3 4 6 9 10 11 10 10 10 10 10 12 11 8 7 8 9 10 11 12 11 9 9 9 8 7 6 6 6 6 5 4 4 3
8 10 10 9 6 7 7 6 3 3 1 3 7 9 10 11 11 11 10 8 10 11 11 10 9 9 9 10 12 12 11 9 8 8 8 7 5 4 5 4 5 5 4 4
9 7 7 11 11 8 7 6 3 1 2 1 5 10 10 11 10 11 11 10 11 11 11 10 10 10 9 9 12 13 10 8 7 6 6 6 6 4 5 4 4 4 3 3
12 12 12 12 12 10 8 7 5 3 3 3 4 9 11 10 10 11 11 12 12 12 11 11 11 10 8 9 11 11 10 9 7 7 6 6 5 5 3 4 5 5 3 2
11 10 12 12 11 10 8 6 3 1 0 4 6 9 11 11 11 12 12 11 12 13 12 11 11 9 8 10 11 11 10 9 8 6 6 5 5 4 4 3 1 1 3 3
14 13 13 12 10 8 6 3 2 2 3 5 7 10 12 14 13 12 11 12 13 13 12 12 12 9 8 10 11 11 9 7 7 6 6 5 5 4 3 3 2 0 1 2
12 11 10 9 9 8 6 6 5 5 6 7 8 9 10 12 13 12 12 13 15 14 12 12 11 9 9 11 11 9 8 11 9 7 6 5 4 3 2 2 1 1 1 2
12 12 10 9 9 8 7 7 8 8 8 9 11 12 14 15 14 13 11 10 11 11 11 12 11 9 9 10 10 8 7 8 10 7 5 4 3 3 2 2 1 1 2 3
15 15 13 11 10 8 7 6 7 9 9 10 14 15 16 16 16 14 14 14 14 12 9 9 10 10 10 10 9 7 7 6 5 5 4 3 3 2 2 1 1 2 2 3
14 13 12 11 10 9 7 7 7 9 10 14 15 14 13 14 15 15 15 15 15 13 8 9 15 12 10 10 10 7 7 6 5 4 3 3 3 2 1 1 1 2 2 3
13 11 10 9 7 8 8 8 10 11 11 14 15 15 15 14 15 15 14 11 7 8 10 11 11 10 9 9 10 7 6 6 5 4 3 2 2 1 1 1 1 2 3 3
11 10 9 8 7 7 8 11 13 13 13 14 16 17 16 15 14 14 14 11 7 9 11 14 9 8 7 8 9 6 6 5 4 3 3 2 1 1 1 1 2 3 3 4
9 9 9 10 10 9 8 10 13 15 15 15 15 17 17 16 14 12 10 9 10 13 10 8 7 9 10 10 6 6 5 5 4 3 2 1 1 1 2 2 3 4 4 4
8 9 11 12 13 12 12 12 13 15 16 16 17 17 16 13 11 12 11 8 9 13 9 7 10 13 12 8 6 5 5 4 3 2 1 1 1 2 2 3 4 4 5 5
10 11 12 14 15 16 16 14 13 13 15 15 14 14 14 13 10 8 9 14 15 14 9 10 13 12 11 6 5 4 3 2 1 1 1 1 2 2 3 4 4 5 5 6
12 14 15 17 16 14 16 17 17 17 16 14 14 12 9 8 10 11 10 11 15 13 8 10 12 11 7 5 4 3 2 2 2 1 2 2 2 3 4 4 5 6 6 6
13 12 12 12 12 13 13 14 14 13 14 14 12 10 11 11 12 11 10 10 12 12 8 6 6 6 4 3 3 2 1 1 1 1 2 3 3 4 5 5 7 6 6 7
14 13 13 13 12 11 12 13 14 13 12 13 13 11 11 11 10 10 10 9 8 7 6 5 4 4 3 2 2 1 1 1 2 2 3 3 4 5 5 6 6 6 7 8
Wind_Direction
264 259 205 218 210 204 209 209 211 218 214 221 222 212 207 204 196 187 193 197 198 199 200 196 193 192 190 189 184 178 177 182 185 179 174 171 171 172 170 171 173 172 170 172
253 246 225 224 216 212 218 215 218 218 227 221 223 216 220 215 202 198 201 203 204 201 197 198 197 194 189 187 182 176 180 184 175 169 168 169 168 166 165 167 165 165 172 173
233 245 236 227 213 208 214 217 212 222 228 201 203 213 216 214 206 206 208 206 203 201 201 201 198 191 189 184 172 173 177 173 169 167 167 167 163 162 165 167 163 168 173 175
221 212 222 231 207 204 215 221 216 221 214 205 212 215 217 210 204 209 208 204 203 202 200 197 187 179 173 164 166 171 172 170 167 164 163 160 161 165 166 163 167 171 175 178
201 215 254 272 215 196 203 227 218 221 221 214 209 218 237 220 203 204 202 198 198 194 187 177 172 167 158 161 165 168 173 171 168 164 161 162 166 166 160 159 164 169 172 172
202 208 226 235 224 185 180 235 221 212 218 212 180 212 234 214 197 197 187 177 173 162 152 158 163 154 155 162 166 175 174 168 162 160 162 165 165 158 152 156 161 159 162 170
216 221 253 255 221 142 180 234 220 210 215 203 201 218 211 176 177 174 164 158 149 142 147 159 153 149 154 159 172 168 151 146 148 153 156 154 149 146 144 143 142 150 158 168
204 217 241 278 136 177 233 288 223 220 217 207 212 210 179 168 165 156 149 144 140 136 137 140 145 146 150 160 154 137 135 136 139 140 142 140 137 136 138 141 144 151 157 174
217 233 279 290 252 263 266 260 253 242 240 205 197 190 174 167 160 156 151 145 139 134 128 127 140 145 148 148 135 130 128 131 131 129 129 134 139 139 137 140 147 157 165 194
258 264 283 290 292 301 308 289 277 253 214 186 184 170 160 156 153 149 144 140 135 131 131 131 131 130 135 134 132 129 129 129 129 128 124 123 128 138 143 151 154 162 180 204
251 274 288 284 290 302 313 322 338 353 282 180 161 159 158 157 155 150 141 136 136 137 137 135 129 123 126 130 128 126 126 126 124 124 127 123 119 131 146 165 169 173 188 190
245 250 256 274 287 293 294 285 275 321 348 316 167 157 151 152 150 144 141 136 133 131 132 131 127 124 125 128 130 129 128 126 126 124 121 122 118 92 78 102 123 130 140 158
246 260 264 273 283 280 269 266 265 244 194 188 163 152 146 142 141 138 137 139 140 137 132 129 125 123 125 125 125 128 132 131 127 126 127 128 127 127 112 64 67 70 67 47
249 256 266 267 268 269 266 264 272 300 221 156 148 140 136 132 135 139 142 139 131 126 125 125 123 122 124 122 120 120 122 125 126 126 127 127 127 127 130 130 98 9 15 12
252 247 250 259 264 266 260 230 196 182 139 131 138 143 144 143 143 138 131 127 123 121 123 124 122 121 120 119 119 120 120 121 119 119 117 118 119 119 121 130 148 213 333 342
253 254 243 235 237 243 232 208 193 186 167 153 148 144 138 131 127 125 128 133 133 134 132 126 123 123 119 118 116 114 116 122 121 119 116 116 119 125 133 146 168 210 263 283
237 241 236 229 229 228 222 208 191 178 169 160 150 136 128 124 123 123 121 116 117 118 121 123 122 118 115 117 117 118 116 119 118 115 120 127 131 140 152 163 191 236 264 286
232 234 230 220 215 218 217 199 180 168 163 153 140 137 139 140 139 134 127 119 111 103 102 113 117 114 111 112 114 117 117 117 119 122 123 126 130 140 152 174 213 254 278 296
234 231 230 225 216 206 199 187 168 154 145 143 142 142 138 133 131 130 128 126 126 124 122 123 122 114 113 117 115 113 116 117 116 117 120 122 112 125 155 193 241 267 282 289
226 221 215 210 200 188 176 162 149 143 143 140 134 129 126 127 128 127 122 114 114 126 129 124 117 113 113 118 115 115 119 122 125 125 123 126 137 154 182 231 259 271 276 279
208 198 188 182 172 161 157 152 147 142 139 138 137 135 131 128 127 126 122 115 107 117 123 122 118 119 118 121 115 117 120 122 125 130 134 141 152 183 231 258 274 283 282 282
189 175 168 157 143 136 135 136 136 133 130 127 126 126 126 125 120 109 101 118 128 126 120 117 119 123 126 118 113 117 119 121 124 130 141 159 186 226 256 270 274 280 281 280
160 151 144 139 134 127 117 119 124 128 128 129 131 130 128 127 127 126 119 121 125 123 118 119 124 123 118 110 113 115 118 121 130 145 168 192 218 240 259 271 274 278 279 280
135 131 128 125 122 120 118 114 112 112 112 111 113 117 120 118 105 96 115 127 127 119 114 120 119 116 111 108 111 113 118 126 147 179 200 220 238 250 259 267 274 277 278 280
123 124 125 125 124 123 121 117 112 109 107 105 101 98 98 105 116 118 117 120 122 114 109 114 114 110 107 110 114 120 132 164 191 197 206 239 253 260 266 269 272 277 279 279
114 115 115 114 119 124 126 123 120 118 116 112 105 100 101 103 108 111 111 111 111 111 107 102 105 105 106 110 116 125 147 188 332 283 252 259 263 268 272 274 275 276 278 279
102 105 106 105 106 111 115 117 118 119 119 119 115 111 110 111 110 110 109 109 108 106 105 103 103 104 107 109 116 138 194 232 246 251 258 262 267 270 273 275 278 279 280 281
Height
1383 1377 1376 1377 1378 1382 1384 1384 1392 1390 1391 1385 1382 1383 1383 1384 1387 1390 1393 1396 1398 1401 1404 1407 1409 1411 1413 1416 1418 1421 1424 1428 1431 1436 1441 1445 1449 1453 1457 1461 1465 1469 1472 1475
1381 1374 1371 1371 1370 1372 1373 1376 1380 1383 1382 1375 1376 1379 1381 1382 1384 1386 1388 1391 1394 1397 1400 1403 1405 1407 1410 1412 1415 1418 1421 1425 1429 1433 1437 1441 1445 1450 1454 1457 1461 1464 1467 1470
1380 1373 1371 1368 1357 1360 1363 1363 1368 1371 1368 1371 1374 1375 1376 1378 1381 1382 1384 1387 1390 1393 1396 1399 1401 1404 1406 1409 1412 1415 1418 1422 1426 1430 1433 1438 1442 1446 1450 1453 1457 1460 1463 1466
1380 1377 1371 1351 1344 1349 1353 1353 1356 1358 1360 1363 1365 1367 1369 1372 1375 1377 1380 1383 1386 1389 1392 1395 1398 1401 1403 1406 1409 1412 1415 1419 1423 1426 1430 1435 1439 1442 1446 1450 1453 1456 1459 1462
1376 1372 1361 1348 1341 1340 1346 1347 1346 1350 1353 1356 1359 1364 1364 1366 1369 1371 1375 1378 1381 1385 1388 1391 1394 1397 1400 1403 1406 1409 1412 1415 1419 1423 1427 1431 1435 1439 1442 1446 1449 1452 1455 1458
1372 1368 1356 1339 1333 1332 1342 1345 1338 1342 1346 1349 1356 1362 1357 1359 1363 1367 1370 1374 1377 1381 1384 1387 1390 1393 1396 1399 1402 1405 1409 1413 1417 1421 1425 1428 1432 1436 1439 1443 1446 1449 1452 1454
1366 1362 1348 1334 1329 1332 1345 1336 1330 1333 1336 1340 1344 1344 1348 1354 1358 1362 1365 1369 1373 1376 1380 1383 1387 1390 1393 1396 1399 1403 1407 1411 1415 1418 1422 1426 1430 1433 1436 1439 1442 1445 1448 1450
1359 1358 1346 1329 1329 1331 1329 1326 1325 1326 1328 1331 1333 1337 1342 1347 1351 1356 1360 1365 1369 1372 1376 1380 1384 1387 1390 1394 1398 1402 1405 1409 1412 1416 1420 1423 1427 1430 1433 1436 1439 1441 1443 1446
1349 1341 1330 1328 1328 1326 1326 1325 1324 1323 1324 1326 1329 1332 1336 1341 1346 1351 1356 1361 1365 1369 1373 1378 1382 1385 1388 1392 1396 1400 1403 1407 1411 1414 1418 1421 1425 1427 1430 1433 1435 1437 1439 1441
1344 1335 1330 1327 1325 1324 1323 1323 1322 1322 1322 1323 1325 1327 1332 1337 1342 1347 1352 1357 1362 1367 1371 1375 1380 1384 1388 1391 1395 1398 1402 1406 1409 1413 1416 1419 1423 1425 1428 1430 1432 1433 1435 1436
1339 1334 1330 1323 1323 1324 1323 1322 1321 1321 1321 1322 1323 1325 1329 1334 1339 1344 1350 1355 1360 1365 1369 1374 1378 1382 1386 1390 1394 1397 1401 1404 1408 1411 1415 1418 1421 1423 1425 1427 1429 1430 1431 1432
1334 1332 1331 1325 1323 1323 1323 1322 1321 1321 1320 1321 1323 1325 1328 1333 1338 1343 1348 1353 1359 1364 1368 1373 1377 1381 1386 1390 1393 1396 1400 1403 1407 1410 1413 1416 1419 1421 1423 1425 1426 1427 1427 1428
1328 1327 1326 1323 1321 1321 1321 1321 1320 1320 1320 1321 1323 1326 1328 1332 1338 1343 1348 1353 1358 1363 1367 1372 1377 1381 1385 1389 1393 1396 1399 1402 1406 1409 1412 1414 1416 1418 1420 1422 1422 1423 1423 1423
1323 1323 1321 1318 1318 1318 1319 1318 1319 1319 1319 1321 1323 1326 1329 1333 1338 1343 1348 1353 1358 1363 1367 1372 1376 1381 1385 1388 1392 1396 1399 1402 1405 1408 1410 1412 1414 1416 1417 1418 1418 1418 1419 1418
1315 1315 1315 1313 1313 1314 1314 1315 1316 1317 1318 1321 1323 1326 1329 1332 1337 1342 1348 1353 1358 1362 1367 1372 1376 1380 1384 1388 1392 1395 1398 1401 1404 1406 1408 1410 1412 1413 1413 1414 1414 1414 1413 1413
1307 1308 1308 1308 1308 1309 1310 1312 1313 1314 1317 1319 1322 1326 1329 1333 1338 1343 1348 1353 1357 1362 1367 1371 1376 1380 1384 1388 1391 1395 1398 1400 1403 1404 1406 1408 1409 1409 1410 1410 1409 1409 1408 1407
1301 1301 1301 1302 1303 1304 1306 1307 1309 1312 1315 1318 1321 1325 1329 1333 1338 1343 1348 1354 1359 1363 1368 1372 1376 1380 1384 1388 1391 1394 1396 1399 1401 1402 1403 1404 1405 1405 1405 1405 1405 1404 1403 1402
1292 1293 1294 1296 1298 1300 1302 1304 1307 1310 1313 1316 1320 1323 1327 1332 1336 1342 1347 1353 1358 1364 1368 1373 1376 1380 1383 1387 1390 1393 1395 1397 1398 1400 1400 1401 1401 1401 1401 1401 1400 1399 1398 1397
1283 1285 1287 1290 1292 1295 1298 1301 1304 1307 1311 1314 1318 1322 1327 1331 1336 1342 1347 1353 1357 1362 1367 1372 1376 1380 1383 1386 1389 1391 1393 1395 1396 1397 1397 1397 1397 1397 1397 1396 1395 1394 1393 1392
1274 1277 1281 1284 1288 1291 1294 1298 1301 1305 1308 1313 1317 1321 1326 1332 1337 1342 1348 1353 1358 1362 1367 1371 1376 1379 1382 1385 1387 1389 1391 1392 1393 1393 1393 1393 1393 1393 1392 1391 1390 1389 1388 1386
1266 1270 1274 1278 1283 1287 1291 1294 1298 1302 1306 1311 1315 1320 1325 1332 1338 1343 1348 1353 1359 1364 1368 1372 1375 1378 1381 1383 1385 1387 1388 1389 1389 1390 1390 1389 1389 1389 1388 1387 1386 1384 1383 1381
1260 1264 1269 1273 1278 1283 1287 1292 1296 1300 1305 1310 1316 1320 1326 1332 1338 1344 1349 1354 1358 1363 1367 1371 1374 1377 1379 1381 1383 1384 1385 1386 1386 1386 1386 1385 1385 1384 1383 1382 1381 1379 1378 1376
1255 1260 1265 1270 1275 1280 1285 1291 1296 1300 1305 1310 1315 1320 1326 1332 1338 1343 1348 1354 1359 1363 1367 1370 1373 1375 1377 1379 1380 1381 1382 1382 1382 1382 1382 1381 1380 1379 1378 1377 1376 1374 1373 1371
1253 1258 1263 1268 1274 1279 1284 1290 1296 1301 1306 1312 1317 1323 1328 1334 1340 1345 1350 1354 1359 1363 1366 1369 1371 1373 1375 1376 1377 1378 1378 1379 1379 1378 1378 1377 1376 1375 1374 1372 1371 1369 1367 1365
1252 1257 1262 1267 1273 1279 1284 1291 1297 1303 1308 1314 1320 1327 1332 1337 1341 1346 1350 1355 1359 1362 1365 1367 1370 1371 1373 1374 1374 1375 1375 1375 1375 1374 1374 1373 1372 1371 1369 1368 1366 1364 1362 1360
1254 1259 1264 1269 1274 1280 1286 1291 1297 1303 1309 1315 1323 1329 1334 1339 1343 1347 1351 1355 1358 1361 1364 1366 1368 1369 1370 1371 1371 1372 1372 1371 1371 1370 1370 1369 1367 1366 1364 1363 1361 1359 1357 1355
1258 1263 1268 1273 1280 1285 1289 1294 1299 1306 1312 1317 1323 1330 1336 1340 1344 1348 1351 1354 1358 1360 1363 1364 1366 1367 1368 1368 1369 1369 1369 1368 1367 1367 1365 1364 1363 1361 1360 1358 1356 1354 1351 1349